TimeCST,TemperatureF,Dew PointF,Humidity,Sea Level PressureIn,VisibilityMPH,Wind Direction,Wind SpeedMPH,Gust SpeedMPH,PrecipitationIn,Events,Conditions,WindDirDegrees,DateUTC
12:15 AM,37.4,31.5,79,30.36,10.0,NE,3.5,-,N/A,,Clear,50,2013-11-10 06:15:00
12:35 AM,35.8,31.1,83,30.36,10.0,NE,6.9,-,N/A,,Clear,40,2013-11-10 06:35:00
12:55 AM,34.7,30.7,85,30.36,10.0,NE,6.9,-,N/A,,Clear,40,2013-11-10 06:55:00
1:15 AM,34.7,30.7,85,30.36,10.0,NE,4.6,-,N/A,,Clear,40,2013-11-10 07:15:00
1:35 AM,33.8,30.2,87,30.37,10.0,NE,5.8,-,N/A,,Clear,40,2013-11-10 07:35:00
1:55 AM,32.0,29.5,90,30.37,10.0,ENE,4.6,-,N/A,,Clear,70,2013-11-10 07:55:00
2:15 AM,32.2,29.7,90,30.37,10.0,Calm,Calm,-,N/A,,Clear,0,2013-11-10 08:15:00
2:35 AM,33.8,30.2,87,30.37,10.0,East,3.5,-,N/A,,Clear,90,2013-11-10 08:35:00
2:55 AM,33.8,30.6,88,30.37,10.0,Calm,Calm,-,N/A,,Clear,0,2013-11-10 08:55:00
3:15 AM,32.9,30.6,91,30.37,10.0,East,3.5,-,N/A,,Clear,80,2013-11-10 09:15:00
3:35 AM,32.0,29.5,90,30.36,10.0,East,3.5,-,N/A,,Clear,100,2013-11-10 09:35:00
3:55 AM,32.0,29.5,90,30.36,10.0,East,3.5,-,N/A,,Clear,100,2013-11-10 09:55:00
4:15 AM,31.1,29.7,94,30.36,10.0,Calm,Calm,-,N/A,,Clear,0,2013-11-10 10:15:00
4:35 AM,31.5,29.5,92,30.36,10.0,Calm,Calm,-,N/A,,Clear,0,2013-11-10 10:35:00
4:55 AM,28.9,28.0,96,30.37,10.0,Calm,Calm,-,N/A,,Clear,0,2013-11-10 10:55:00
5:15 AM,29.5,29.5,100,30.37,10.0,Calm,Calm,-,N/A,,Clear,0,2013-11-10 11:15:00
5:35 AM,29.7,29.7,100,30.37,7.0,Calm,Calm,-,N/A,,Clear,0,2013-11-10 11:35:00
5:55 AM,30.0,30.0,100,30.37,10.0,SSE,3.5,-,N/A,,Clear,160,2013-11-10 11:55:00
6:15 AM,30.6,30.2,99,30.36,10.0,ESE,3.5,-,N/A,,Clear,120,2013-11-10 12:15:00
6:35 AM,29.3,28.9,99,30.36,10.0,SE,5.8,-,N/A,,Clear,140,2013-11-10 12:35:00
6:55 AM,30.0,29.3,97,30.36,10.0,SE,5.8,-,N/A,,Clear,140,2013-11-10 12:55:00
7:15 AM,29.7,28.2,94,30.36,10.0,ESE,4.6,-,N/A,,Clear,120,2013-11-10 13:15:00
7:35 AM,28.8,27.9,96,30.36,10.0,SE,5.8,-,N/A,,Clear,130,2013-11-10 13:35:00
7:55 AM,29.1,28.0,96,30.36,10.0,SE,4.6,-,N/A,,Clear,130,2013-11-10 13:55:00
8:15 AM,31.1,28.9,92,30.36,10.0,ESE,5.8,-,N/A,,Clear,120,2013-11-10 14:15:00
8:35 AM,32.0,30.4,94,30.37,10.0,SSE,3.5,-,N/A,,Clear,150,2013-11-10 14:35:00
8:55 AM,34.0,30.9,89,30.37,10.0,SE,4.6,-,N/A,,Clear,140,2013-11-10 14:55:00
9:15 AM,36.9,31.3,80,30.37,10.0,SE,8.1,-,N/A,,Clear,140,2013-11-10 15:15:00
9:35 AM,39.0,32.0,76,30.37,10.0,SSE,9.2,-,N/A,,Clear,150,2013-11-10 15:35:00
9:55 AM,41.2,32.0,70,30.37,10.0,SSE,11.5,-,N/A,,Clear,150,2013-11-10 15:55:00
10:15 AM,41.7,31.5,67,30.36,10.0,SSE,13.8,-,N/A,,Clear,160,2013-11-10 16:15:00
10:35 AM,43.5,32.2,64,30.36,10.0,South,15.0,18.4,N/A,,Clear,170,2013-11-10 16:35:00
10:55 AM,45.1,31.8,60,30.35,10.0,South,10.4,-,N/A,,Clear,170,2013-11-10 16:55:00
11:15 AM,46.4,31.6,56,30.34,10.0,South,11.5,17.3,N/A,,Clear,170,2013-11-10 17:15:00
11:35 AM,48.0,31.5,53,30.32,10.0,South,13.8,19.6,N/A,,Clear,170,2013-11-10 17:35:00
11:55 AM,49.6,31.8,50,30.31,10.0,SSE,16.1,-,N/A,,Clear,160,2013-11-10 17:55:00
12:15 PM,51.1,32.0,48,30.30,10.0,South,13.8,17.3,N/A,,Clear,180,2013-11-10 18:15:00
12:35 PM,52.0,31.8,46,30.28,10.0,South,18.4,-,N/A,,Clear,190,2013-11-10 18:35:00
12:55 PM,52.2,32.5,47,30.27,10.0,South,12.7,19.6,N/A,,Clear,190,2013-11-10 18:55:00
1:15 PM,51.3,33.1,50,30.26,10.0,South,15.0,19.6,N/A,,Mostly Cloudy,190,2013-11-10 19:15:00
1:35 PM,51.1,33.6,51,30.25,10.0,South,12.7,16.1,N/A,,Overcast,190,2013-11-10 19:35:00
1:55 PM,51.8,33.4,50,30.25,10.0,SSW,13.8,-,N/A,,Overcast,200,2013-11-10 19:55:00
2:15 PM,51.3,34.0,52,30.25,10.0,SSW,15.0,-,N/A,,Overcast,200,2013-11-10 20:15:00
2:35 PM,50.9,34.0,52,30.24,10.0,South,12.7,-,N/A,,Overcast,190,2013-11-10 20:35:00
2:55 PM,50.9,34.5,54,30.23,10.0,SSW,13.8,-,N/A,,Overcast,200,2013-11-10 20:55:00
3:15 PM,50.4,34.7,55,30.22,10.0,SSW,13.8,-,N/A,,Overcast,200,2013-11-10 21:15:00
3:35 PM,50.9,35.6,56,30.22,10.0,SSW,12.7,-,N/A,,Overcast,200,2013-11-10 21:35:00
3:55 PM,51.1,36.1,57,30.21,10.0,SSW,8.1,-,N/A,,Overcast,200,2013-11-10 21:55:00
4:15 PM,51.1,36.7,58,30.20,10.0,South,9.2,-,N/A,,Overcast,190,2013-11-10 22:15:00
4:35 PM,51.4,37.4,59,30.20,10.0,South,8.1,-,N/A,,Overcast,190,2013-11-10 22:35:00
4:55 PM,51.3,37.8,60,30.20,10.0,South,8.1,-,N/A,,Overcast,190,2013-11-10 22:55:00
5:15 PM,50.4,37.8,62,30.19,10.0,South,5.8,-,N/A,,Mostly Cloudy,190,2013-11-10 23:15:00
5:35 PM,50.9,38.3,62,30.18,10.0,South,6.9,-,N/A,,Mostly Cloudy,180,2013-11-10 23:35:00
5:55 PM,50.9,39.0,64,30.19,10.0,SSW,8.1,-,N/A,,Overcast,200,2013-11-10 23:55:00
6:15 PM,49.3,39.0,68,30.18,10.0,South,8.1,-,N/A,,Scattered Clouds,190,2013-11-11 00:15:00
6:35 PM,49.1,39.2,69,30.18,10.0,South,9.2,-,N/A,,Clear,190,2013-11-11 00:35:00
6:55 PM,49.1,38.8,68,30.18,10.0,South,8.1,-,N/A,,Clear,180,2013-11-11 00:55:00
7:15 PM,48.2,39.2,71,30.17,10.0,South,6.9,-,N/A,,Clear,180,2013-11-11 01:15:00
7:35 PM,47.5,39.2,73,30.17,10.0,South,8.1,-,N/A,,Clear,190,2013-11-11 01:35:00
7:55 PM,46.9,38.7,73,30.17,10.0,South,8.1,-,N/A,,Clear,180,2013-11-11 01:55:00
8:15 PM,46.4,38.5,74,30.17,10.0,South,6.9,-,N/A,,Clear,180,2013-11-11 02:15:00
8:35 PM,46.4,38.5,74,30.16,10.0,South,6.9,-,N/A,,Clear,190,2013-11-11 02:35:00
8:55 PM,46.0,38.3,74,30.16,10.0,South,5.8,-,N/A,,Clear,190,2013-11-11 02:55:00
9:15 PM,45.5,38.7,77,30.16,10.0,SSW,8.1,-,N/A,,Clear,200,2013-11-11 03:15:00
9:35 PM,42.6,37.8,83,30.16,10.0,SSW,6.9,-,N/A,,Clear,210,2013-11-11 03:35:00
9:55 PM,42.4,38.3,85,30.16,10.0,SSW,8.1,-,N/A,,Clear,210,2013-11-11 03:55:00
10:15 PM,42.3,38.5,86,30.16,10.0,SSW,8.1,-,N/A,,Clear,210,2013-11-11 04:15:00
10:35 PM,41.9,38.5,88,30.15,10.0,SW,6.9,-,N/A,,Clear,220,2013-11-11 04:35:00
10:55 PM,41.2,38.5,90,30.15,10.0,SW,6.9,-,N/A,,Clear,230,2013-11-11 04:55:00
11:15 PM,42.1,39.7,91,30.15,10.0,SW,8.1,-,N/A,,Clear,220,2013-11-11 05:15:00
11:35 PM,43.2,41.0,92,30.14,10.0,SW,8.1,-,N/A,,Clear,230,2013-11-11 05:35:00
11:55 PM,44.2,41.9,91,30.13,10.0,SW,10.4,-,N/A,,Clear,220,2013-11-11 05:55:00